Location: Marcé
(47.5801°N, 0.3280°W)
Time: 20:58:02
(UTC+01:00)

Vanguard 3 - Pass Details

Date: 09 December 2021
Orbit: 508 x 3260 km, 33.3° (Epoch: 17 January)

Event Time Altitude Azimuth Distance (km) Brightness Sun altitude
Rises 07:49:39 0° 272° (W) 7,221 - -7.8°
Exits shadow 07:50:30 - 271° (W) 7,059 11.4 -7.7°
Reaches altitude 10° 07:55:04 10° 265° (W) 6,186 11.1 -7.0°
Maximum altitude 08:11:37 38° 208° (SSW) 3,732 10.5 -4.5°
Drops below altitude 10° 08:23:42 10° 146° (SSE) 4,538 12.3 -2.8°
Sets 08:26:59 0° 138° (SE) 5,188 13.1 -2.3°
